Location: Benque
(43.2594°N, 0.9178°E)
Time: 18:05:43
(UTC+00:00)

Cosmos 2366 rocket - Pass Details

Date: 24 January 2020
Orbit: 956 x 996 km, 82.9° (Epoch: 22 February)

Event Time Altitude Azimuth Distance (km) Brightness Sun altitude
Rises 18:25:45 0° 186° (S) 3,640 7.2 -16.1°
Reaches altitude 10° 18:28:13 10° 186° (S) 2,703 6.5 -16.6°
Maximum altitude 18:34:26 89° 278° (W) 983 4.0 -17.7°
Drops below altitude 10° 18:40:45 10° 8° (N) 2,750 6.2 -18.8°
Sets 18:43:18 0° 8° (N) 3,707 6.9 -19.3°
